Weather History for KIZG - May, 2012

Change the Weather History Date:

Friday, May 4, 2012

  Actual Average Record
Temperature  
Mean Temperature 50 °F -  
Max Temperature 53 °F 63 °F 86 °F (2015)
Min Temperature 46 °F 36 °F 25 °F (2003)
Degree Days  
Heating Degree Days 16    
Moisture  
Dew Point 48 °F    
Average Humidity 95    
Maximum Humidity 100    
Minimum Humidity 87    
Precipitation  
Precipitation 0.38 in - - ()
Sea Level Pressure  
Sea Level Pressure 29.99 in    
Wind  
Wind Speed 3 mph (ESE)    
Max Wind Speed 9 mph    
Max Gust Speed -    
Visibility 7 miles    
Events Rain    
Averages and records for this station are not official NWS values.
T = Trace of Precipitation, MM = Missing Value Source: NWS Daily Summary

Daily Weather History Graph

Daily Weather History Graph

Search for Another Location

Airport or City:

Trip Planner

Search our weather history database for the weather conditions in past years. The results will help you decide how hot, cold, wet, or windy it might be!

Date:

Astronomy

May. 04, 2012 Rise Set
Actual Time 5:30 AM EDT 7:51 PM EDT
Civil Twilight 4:58 AM EDT 8:23 PM EDT
Nautical Twilight 4:18 AM EDT 9:03 PM EDT
Astronomical Twilight 3:34 AM EDT 9:48 PM EDT
Moon 6:23 PM EDT (5/4) 4:12 AM EDT (5/4)
Length of Visible Light 15h 24m
Length of Day
14h 20m
Waxing Gibbous, 97% of the Moon is Illuminated
May 4
Waxing Gibbous
May 5
Full
May 12
Last Quarter
May 20
New
May 28
First Quarter

Hourly Weather History & Observations

Time (EDT) Temp. Windchill Dew Point Humidity Pressure Visibility Wind Dir Wind Speed Gust Speed Precip Events Conditions
12:35 AM 48.2 °F - 46.4 °F 93% 30.06 in 10.0 mi Calm Calm - N/A   Overcast
12:54 AM 48.0 °F - 46.0 °F 93% 30.06 in 10.0 mi Calm Calm - N/A   Overcast
1:54 AM 48.0 °F - 46.0 °F 93% 30.04 in 10.0 mi Calm Calm - N/A   Overcast
2:08 AM 48.2 °F - 46.4 °F 93% 30.02 in 10.0 mi Calm Calm - N/A   Overcast
2:24 AM 48.2 °F - 46.4 °F 93% 30.03 in 10.0 mi Calm Calm - N/A   Overcast
2:54 AM 48.0 °F - 46.9 °F 96% 30.04 in 10.0 mi Calm Calm - 0.00 in Rain Light Rain
3:54 AM 48.0 °F - 46.9 °F 96% 30.02 in 10.0 mi SSE 3.5 mph - 0.01 in Rain Light Rain
4:54 AM 48.0 °F - 46.9 °F 96% 30.02 in 8.0 mi SSE 4.6 mph - 0.02 in Rain Light Rain
5:16 AM 48.2 °F - 46.4 °F 93% 29.99 in 8.0 mi Calm Calm - 0.02 in Rain Light Rain
5:26 AM 48.2 °F - 48.2 °F 100% 29.98 in 9.0 mi East 3.5 mph - 0.03 in Rain Light Rain
5:37 AM 48.2 °F - 46.4 °F 93% 29.98 in 4.0 mi East 3.5 mph - 0.05 in Rain Rain
5:45 AM 48.2 °F - 46.4 °F 93% 29.98 in 3.0 mi Calm Calm - 0.06 in Rain Light Rain
5:50 AM 48.2 °F - 46.4 °F 93% 29.99 in 4.0 mi Calm Calm - 0.07 in Rain Light Rain
5:54 AM 48.0 °F - 46.9 °F 96% 30.00 in 4.0 mi Calm Calm - 0.07 in Rain Light Rain
6:02 AM 48.2 °F - 48.2 °F 100% 29.99 in 6.0 mi Calm Calm - 0.00 in Rain Light Rain
6:09 AM 48.2 °F - 48.2 °F 100% 29.98 in 7.0 mi Calm Calm - 0.00 in Rain Light Rain
6:18 AM 48.2 °F - 46.4 °F 93% 29.98 in 8.0 mi ESE 4.6 mph - 0.00 in Rain Light Rain
6:26 AM 48.2 °F - 46.4 °F 93% 29.98 in 7.0 mi ESE 3.5 mph - 0.00 in   Overcast
6:54 AM 48.0 °F - 48.0 °F 100% 29.99 in 5.0 mi East 3.5 mph - 0.01 in Rain Light Rain
7:37 AM 48.2 °F - 48.2 °F 100% 29.97 in 5.0 mi ESE 4.6 mph - 0.03 in Rain Light Rain
7:54 AM 48.0 °F - 48.0 °F 100% 29.99 in 10.0 mi Calm Calm - 0.03 in Rain Light Rain
8:29 AM 48.2 °F - 48.2 °F 100% 29.98 in 4.0 mi SE 3.5 mph - 0.02 in Rain Light Rain
8:54 AM 48.0 °F - 48.0 °F 100% 29.99 in 2.0 mi East 4.6 mph - 0.06 in Rain Light Rain
9:13 AM 48.2 °F - 48.2 °F 100% 29.98 in 3.0 mi ESE 4.6 mph - 0.03 in Rain Light Rain
9:20 AM 48.2 °F - 48.2 °F 100% 29.98 in 3.0 mi ESE 4.6 mph - 0.04 in Rain Light Rain
9:26 AM 48.2 °F - 48.2 °F 100% 29.98 in 2.5 mi ESE 4.6 mph - 0.05 in Rain Light Rain
9:37 AM 48.2 °F - 48.2 °F 100% 29.98 in 3.0 mi ESE 4.6 mph - 0.07 in Rain Light Rain
9:40 AM 48.2 °F - 48.2 °F 100% 29.98 in 3.0 mi ESE 4.6 mph - 0.07 in Rain Light Rain
9:54 AM 48.9 °F - 48.0 °F 97% 29.99 in 2.0 mi ESE 4.6 mph - 0.10 in Rain Light Rain
10:01 AM 48.2 °F - 48.2 °F 100% 29.98 in 3.0 mi ESE 4.6 mph - 0.00 in Rain Light Rain
10:23 AM 48.2 °F - 48.2 °F 100% 29.98 in 9.0 mi Variable 4.6 mph - 0.01 in   Overcast
10:54 AM 50.0 °F - 48.9 °F 96% 30.00 in 10.0 mi Variable 4.6 mph - 0.01 in   Overcast
11:38 AM 51.8 °F - 48.2 °F 88% 29.98 in 10.0 mi Variable 3.5 mph - N/A   Overcast
11:54 AM 51.1 °F - 48.9 °F 92% 29.99 in 3.0 mi East 4.6 mph - N/A   Overcast
12:02 PM 50.0 °F - 48.2 °F 94% 29.98 in 2.5 mi East 4.6 mph - 0.00 in Rain Light Rain
12:11 PM 50.0 °F - 48.2 °F 94% 29.98 in 3.0 mi East 4.6 mph - 0.01 in Rain Light Rain
12:24 PM 51.8 °F - 50.0 °F 94% 29.98 in 6.0 mi East 3.5 mph - 0.01 in Rain Light Rain
12:41 PM 50.0 °F - 48.2 °F 94% 29.98 in 4.0 mi Variable 4.6 mph - 0.02 in Rain Light Rain
12:54 PM 50.0 °F - 50.0 °F 100% 29.99 in 2.5 mi Variable 3.5 mph - 0.04 in Rain Light Rain
1:10 PM 51.8 °F - 48.2 °F 88% 29.98 in 2.5 mi ENE 3.5 mph - 0.01 in Rain Light Rain
1:16 PM 51.8 °F - 50.0 °F 94% 29.98 in 3.0 mi East 4.6 mph - 0.02 in Rain Light Rain
1:24 PM 51.8 °F - 50.0 °F 94% 29.98 in 4.0 mi ESE 6.9 mph - 0.02 in   Overcast
1:38 PM 51.8 °F - 50.0 °F 94% 29.99 in 7.0 mi East 5.8 mph - 0.02 in   Overcast
1:49 PM 50.0 °F - 48.2 °F 94% 29.99 in 8.0 mi ESE 6.9 mph - 0.02 in   Overcast
1:54 PM 50.0 °F - 48.9 °F 96% 29.99 in 9.0 mi East 8.1 mph - 0.02 in   Overcast
2:05 PM 51.8 °F - 50.0 °F 94% 29.98 in 10.0 mi East 8.1 mph - N/A   Overcast
2:54 PM 53.1 °F - 50.0 °F 89% 29.98 in 10.0 mi East 4.6 mph - N/A   Overcast
3:05 PM 51.8 °F - 48.2 °F 88% 29.96 in 10.0 mi East 9.2 mph - N/A   Overcast
3:14 PM 51.8 °F - 48.2 °F 88% 29.97 in 10.0 mi East 6.9 mph - N/A   Overcast
3:24 PM 51.8 °F - 48.2 °F 88% 29.97 in 10.0 mi ESE 9.2 mph - N/A   Overcast
3:39 PM 51.8 °F - 48.2 °F 88% 29.97 in 10.0 mi East 3.5 mph - N/A   Overcast
3:54 PM 51.1 °F - 48.0 °F 89% 29.99 in 10.0 mi ESE 8.1 mph - N/A   Overcast
4:39 PM 50.0 °F - 46.4 °F 87% 29.98 in 10.0 mi ESE 5.8 mph - N/A   Overcast
4:54 PM 50.0 °F - 48.0 °F 93% 29.99 in 10.0 mi ESE 6.9 mph - N/A   Overcast
5:54 PM 48.9 °F - 46.9 °F 93% 29.99 in 10.0 mi ESE 4.6 mph - N/A   Overcast
6:54 PM 48.9 °F - 46.9 °F 93% 29.99 in 10.0 mi ESE 4.6 mph - 0.01 in   Overcast
8:08 PM 48.2 °F - 46.4 °F 93% 29.98 in 10.0 mi SE 3.5 mph - N/A   Overcast
8:15 PM 48.2 °F - 46.4 °F 93% 29.98 in 10.0 mi ESE 5.8 mph - N/A   Overcast
8:24 PM 48.2 °F - 46.4 °F 93% 29.98 in 10.0 mi ESE 4.6 mph - N/A   Overcast
8:37 PM 48.2 °F - 46.4 °F 93% 29.98 in 10.0 mi SE 3.5 mph - N/A   Overcast
8:50 PM 48.2 °F - 46.4 °F 93% 29.99 in 10.0 mi ESE 3.5 mph - N/A   Overcast
8:54 PM 46.9 °F - 46.0 °F 97% 30.00 in 10.0 mi SE 3.5 mph - N/A   Overcast
9:54 PM 46.9 °F - 46.0 °F 97% 29.99 in 10.0 mi Calm Calm - N/A   Overcast
10:54 PM 46.0 °F 43.9 °F 46.0 °F 100% 29.98 in 10.0 mi SE 4.6 mph - N/A   Overcast
11:08 PM 46.4 °F 44.3 °F 44.6 °F 93% 29.97 in 2.5 mi ESE 4.6 mph - N/A   Overcast
11:18 PM 46.4 °F 45.2 °F 46.4 °F 100% 29.97 in 1.5 mi ESE 3.5 mph - N/A   Overcast
11:26 PM 46.4 °F 45.2 °F 46.4 °F 100% 29.97 in 1.0 mi SE 3.5 mph - N/A   Mist
11:44 PM 46.4 °F 43.5 °F 46.4 °F 100% 29.96 in 0.8 mi ESE 5.8 mph - N/A   Mist
11:54 PM 46.0 °F - 46.0 °F 100% 29.98 in 0.8 mi Calm Calm - N/A   Mist